sat.trackr.live / text

‹ back to catalog

STARLINK-36121

NORAD 66940 · 2025-286R

PAYLOAD ACTIVE UNKNOWN

§ Identity

Operator
Country
US
Launch date
2025-12-07
Launch site
AFWTR
Launch vehicle
Mass (kg)
RCS (m²)

Purposes: comms

External: N2YO · Heavens-Above · Gunter

§ Orbital elements

Epoch: 2026-09-20T11:21:27.787392Z

Period
93.85 min
Inclination
53.1583°
Eccentricity
0.0001305
Mean motion
15.34434226 rev/d
Perigee alt
461.7 km
Apogee alt
463.5 km
Semi-major
6,840.7 km
B*
6.9484e-4
RAAN
169.8288°
Arg perigee
86.6608°
Mean anomaly
273.4544°
Rev number
4,529

§ Raw data

STARLINK-361211 66940U 25286R   26263.47323828  .00023198  00000+0  69484-3 0  99902 66940  53.1583 169.8288 0001305  86.6608 273.4544 15.34434226 45290

JSON: /api/v1/satellites/66940 · /tle

For live sub-satellite position, see the globe view (requires WebGL).

§ Visibility from observer

Set your observer location to see the next 7 days of passes ≥ 10°. The values pass through the URL so the page stays shareable.

No JS? Fill the form by hand. The geolocation button needs JavaScript.